ANACAPA ISLAND CA US current weather conditions

sailwx.info

Wind from 308 at 14 knots gusting 18

Air temperature 22.2° C
Dewpoint 19.8° C

Last reported at 2014-Jul-30 08:23 UTC.
Time now 2014-Jul-30 09:15 UTC

Location: N 34°01' W 119°22'.
View on Google Maps.

See reports from other nearby stations

  
Tides and Currents Weather Stations Pressure Air Temp Water Temp Dewpoint Dewpoint Depression Visibility Wind Speed Wind Dir Waves Ship Positions
date/time (UTC)wind fromknots sea level pressurealtimeterstation pressurevisibilityair tempwater tempwave heightnotes
2014-Jul-30 08:23 308 14 gusting 18 22.2
2014-Jul-30 07:23 294 13 gusting 23 21.7
2014-Jul-30 06:23 294 15 gusting 26 22.8
2014-Jul-30 05:23 316 19 gusting 23 22.2
2014-Jul-30 04:23 317 14 gusting 18 21.7
2014-Jul-30 03:23 327 7 gusting 18 22.8
2014-Jul-30 02:23 311 13 gusting 17 22.2
2014-Jul-30 01:23 316 13 gusting 17 21.7
2014-Jul-30 00:23 255 3 gusting 19 25.0
2014-Jul-29 23:23 284 15 gusting 26 22.2
2014-Jul-29 22:23 302 22 gusting 29 22.8
2014-Jul-29 21:23 304 19 gusting 25 22.2
2014-Jul-29 20:23 306 17 gusting 22 22.2
2014-Jul-29 19:23 297 16 gusting 19 21.7
2014-Jul-29 18:23 301 11 gusting 13 22.8
2014-Jul-29 17:23 297 6 gusting 11 24.4
2014-Jul-29 16:23 327 7 gusting 9 23.9
2014-Jul-29 15:23 352 8 gusting 11 23.3
2014-Jul-29 14:23 346 10 gusting 12 23.3
2014-Jul-29 13:23 22.8
2014-Jul-29 12:23 038 6 gusting 9 22.2
2014-Jul-29 11:23 044 1 gusting 11 22.8
2014-Jul-29 10:23 294 10 gusting 14 22.8
2014-Jul-29 09:23 312 12 gusting 15 22.8
2014-Jul-29 08:23 306 13 gusting 21 21.1
2014-Jul-29 07:23 329 18 gusting 23 22.8
2014-Jul-29 06:23 322 19 gusting 25 21.7
2014-Jul-29 05:23 321 18 gusting 24 22.2
2014-Jul-29 04:23 312 18 gusting 23 22.2
2014-Jul-29 03:23 309 19 gusting 23 22.2
2014-Jul-29 02:23 298 13 gusting 24 21.7
2014-Jul-29 01:23 305 18 gusting 22 21.1
2014-Jul-29 00:23 295 13 gusting 19 22.2
2014-Jul-28 23:23 105 5 gusting 18 25.6
2014-Jul-28 22:23 220 1 gusting 13 25.0
2014-Jul-28 21:23 296 6 gusting 13 24.4
2014-Jul-28 20:23 299 11 gusting 14 23.9
2014-Jul-28 19:23 314 11 gusting 13 23.3
2014-Jul-28 18:23 310 6 gusting 9 23.3
2014-Jul-28 17:23 329 5 gusting 6 23.9
2014-Jul-28 16:23 316 5 gusting 8 22.8
2014-Jul-28 15:23 333 5 gusting 11 22.8
2014-Jul-28 14:23 337 9 gusting 12 23.3
2014-Jul-28 13:23 011 6 gusting 10 21.7
2014-Jul-28 12:23 359 7 gusting 10 22.8
2014-Jul-28 11:23 358 1 gusting 3 21.7
2014-Jul-28 10:23 072 1 gusting 9 22.2
2014-Jul-28 09:23 323 7 gusting 13 22.2